Back to catalog

ARIANE 1 DEB

AliveSSO
NORAD 39106·DEBRIS·🇫🇷 France

Launched Feb 22, 1986 from Guiana Space Centre

Loading…

Next Passes (next 24 hours)

TLE

FreshSource: Space-Track

Epoch: Sep 12, 2026, 07:27 UTC

1 39106U 86019VU  26255.31104585  .00000125  00000-0  76400-4 0  9999
2 39106  98.3878 265.6295 0064447 153.7471 206.6997 14.19964004684119

Track ARIANE 1 DEB in real time with AllMySat

Download on the App Store